Weather History for Watonga, OK

Change the Weather History Date:

Tuesday, December 17, 2013

  Actual Average Record
Temperature  
Mean Temperature 45 °F -  
Max Temperature 60 °F 51 °F 72 °F (1980)
Min Temperature 29 °F 26 °F 4 °F (1979)
Degree Days  
Heating Degree Days 20    
Moisture  
Dew Point 30 °F    
Average Humidity 62    
Maximum Humidity 89    
Minimum Humidity 32    
Precipitation  
Precipitation 0.00 in - - ()
Sea Level Pressure  
Sea Level Pressure 30.27 in    
Wind  
Wind Speed 5 mph (North)    
Max Wind Speed 17 mph    
Max Gust Speed 20 mph    
Visibility 10 miles    
Events      
Averages and records for this station are not official NWS values.
T = Trace of Precipitation, MM = Missing Value Source: NWS Daily Summary

Daily Weather History Graph

Daily Weather History Graph

Search for Another Location

Airport:

Trip Planner

Search our weather history database for the weather conditions in past years. The results will help you decide how hot, cold, wet, or windy it might be!

Date:

Astronomy

Dec. 17, 2013 Rise Set
Actual Time 7:38 AM CST 5:21 PM CST
Civil Twilight 7:09 AM CST 5:50 PM CST
Nautical Twilight 6:37 AM CST 6:22 PM CST
Astronomical Twilight 6:06 AM CST 6:53 PM CST
Moon 6:01 PM CST (12/17) 7:37 AM CST (12/17)
Length of Visible Light 10h 41m
Length of Day
9h 43m
Full, 100% of the Moon is Illuminated
Dec 17
Full
Dec 25
Last Quarter
Jan 1
New
Jan 7
First Quarter
Jan 15
Full

Hourly Weather History & Observations

Time (CST) Temp. Windchill Dew Point Humidity Pressure Visibility Wind Dir Wind Speed Gust Speed Precip Events Conditions
12:15 AM 42.3 °F - 32.0 °F 67% 30.18 in 10.0 mi Calm Calm - N/A   Clear
12:35 AM 40.8 °F 37.8 °F 31.5 °F 69% 30.18 in 10.0 mi West 4.6 mph - N/A   Clear
12:55 AM 38.1 °F 34.6 °F 30.7 °F 75% 30.18 in 10.0 mi West 4.6 mph - N/A   Clear
1:15 AM 38.7 °F 34.3 °F 30.9 °F 74% 30.18 in 10.0 mi WNW 5.8 mph - N/A   Clear
1:35 AM 40.1 °F 38.0 °F 30.9 °F 70% 30.18 in 10.0 mi West 3.5 mph - N/A   Clear
1:55 AM 39.2 °F - 30.7 °F 72% 30.18 in 10.0 mi Calm Calm - N/A   Clear
2:15 AM 41.9 °F - 31.1 °F 66% 30.18 in 10.0 mi Calm Calm - N/A   Clear
2:35 AM 40.1 °F 38.0 °F 30.7 °F 69% 30.19 in 10.0 mi WNW 3.5 mph - N/A   Clear
2:55 AM 33.4 °F 29.1 °F 29.3 °F 85% 30.19 in 10.0 mi West 4.6 mph - N/A   Clear
3:15 AM 35.8 °F 33.0 °F 29.5 °F 78% 30.19 in 10.0 mi West 3.5 mph - N/A   Clear
3:35 AM 36.9 °F 34.3 °F 29.3 °F 74% 30.20 in 10.0 mi West 3.5 mph - N/A   Clear
3:55 AM 37.2 °F 34.7 °F 29.5 °F 74% 30.19 in 10.0 mi West 3.5 mph - N/A   Clear
4:15 AM 36.1 °F 33.5 °F 29.1 °F 76% 30.19 in 10.0 mi West 3.5 mph - N/A   Clear
4:35 AM 33.8 °F 30.8 °F 28.4 °F 81% 30.19 in 10.0 mi WNW 3.5 mph - N/A   Clear
4:55 AM 36.0 °F - 28.8 °F 75% 30.20 in 10.0 mi Calm Calm - N/A   Clear
5:15 AM 39.4 °F 37.2 °F 28.4 °F 65% 30.21 in 10.0 mi NW 3.5 mph - N/A   Clear
5:35 AM 36.1 °F 32.3 °F 27.7 °F 71% 30.21 in 10.0 mi WNW 4.6 mph - N/A   Clear
5:55 AM 35.6 °F 30.7 °F 27.5 °F 72% 30.22 in 10.0 mi WNW 5.8 mph - N/A   Clear
6:15 AM 31.6 °F 25.1 °F 26.4 °F 81% 30.23 in 10.0 mi West 6.9 mph - N/A   Clear
6:35 AM 32.0 °F 25.6 °F 26.2 °F 79% 30.23 in 10.0 mi WNW 6.9 mph - N/A   Clear
6:55 AM 31.1 °F 25.4 °F 25.7 °F 80% 30.23 in 10.0 mi WNW 5.8 mph - N/A   Clear
7:15 AM 32.0 °F 26.4 °F 26.2 °F 79% 30.24 in 10.0 mi NW 5.8 mph - N/A   Clear
7:35 AM 34.3 °F - 26.2 °F 72% 30.25 in 10.0 mi Calm Calm - N/A   Clear
7:55 AM 33.4 °F 29.1 °F 26.2 °F 75% 30.26 in 10.0 mi WNW 4.6 mph - N/A   Clear
8:15 AM 35.8 °F - 26.2 °F 68% 30.27 in 10.0 mi Calm Calm - N/A   Clear
8:35 AM 40.3 °F - 27.3 °F 60% 30.28 in 10.0 mi Calm Calm - N/A   Clear
8:55 AM 41.0 °F 38.0 °F 31.1 °F 68% 30.29 in 10.0 mi NNW 4.6 mph - N/A   Clear
9:15 AM 46.4 °F 42.9 °F 29.5 °F 52% 30.30 in 10.0 mi NNW 6.9 mph - N/A   Clear
9:35 AM 48.6 °F - 29.5 °F 48% 30.31 in 10.0 mi North 10.4 mph 17.3 mph N/A   Clear
9:55 AM 49.3 °F - 28.8 °F 45% 30.32 in 10.0 mi North 15.0 mph - N/A   Clear
10:15 AM 50.5 °F - 29.5 °F 44% 30.32 in 10.0 mi North 12.7 mph 17.3 mph N/A   Clear
10:35 AM 51.3 °F - 29.3 °F 43% 30.33 in 10.0 mi North 10.4 mph - N/A   Clear
10:55 AM 52.0 °F - 30.0 °F 43% 30.33 in 10.0 mi North 12.7 mph - N/A   Clear
11:15 AM 52.0 °F - 29.8 °F 43% 30.34 in 10.0 mi North 9.2 mph - N/A   Clear
11:35 AM 54.0 °F - 30.6 °F 41% 30.34 in 10.0 mi North 11.5 mph 19.6 mph N/A   Clear
11:55 AM 54.1 °F - 31.1 °F 41% 30.33 in 10.0 mi NNE 15.0 mph - N/A   Clear
12:15 PM 54.9 °F - 31.6 °F 41% 30.33 in 10.0 mi NNE 13.8 mph - N/A   Clear
12:35 PM 56.7 °F - 31.8 °F 39% 30.33 in 10.0 mi NNE 15.0 mph - N/A   Clear
12:55 PM 58.5 °F - 32.0 °F 37% 30.32 in 10.0 mi NNE 17.3 mph - N/A   Clear
1:15 PM 58.3 °F - 31.8 °F 37% 30.31 in 10.0 mi NE 15.0 mph - N/A   Clear
1:35 PM 59.2 °F - 31.8 °F 36% 30.30 in 10.0 mi NE 16.1 mph - N/A   Clear
1:55 PM 60.1 °F - 31.1 °F 33% 30.30 in 10.0 mi NE 15.0 mph 19.6 mph N/A   Clear
2:15 PM 60.3 °F - 30.4 °F 32% 30.29 in 10.0 mi NE 12.7 mph 18.4 mph N/A   Clear
2:35 PM 60.1 °F - 29.8 °F 32% 30.29 in 10.0 mi NE 15.0 mph - N/A   Clear
2:55 PM 60.1 °F - 30.4 °F 33% 30.30 in 10.0 mi NNE 13.8 mph 17.3 mph N/A   Clear
3:15 PM 59.5 °F - 30.9 °F 34% 30.30 in 10.0 mi NE 12.7 mph 18.4 mph N/A   Clear
3:35 PM 59.2 °F - 31.1 °F 35% 30.30 in 10.0 mi NE 11.5 mph - N/A   Clear
3:55 PM 58.8 °F - 31.8 °F 36% 30.30 in 10.0 mi NE 10.4 mph - N/A   Clear
4:15 PM 57.4 °F - 31.6 °F 38% 30.30 in 10.0 mi NE 11.5 mph - N/A   Clear
4:35 PM 55.9 °F - 31.8 °F 40% 30.31 in 10.0 mi NE 8.1 mph - N/A   Clear
4:55 PM 53.4 °F - 32.0 °F 44% 30.30 in 10.0 mi NE 6.9 mph - N/A   Clear
5:15 PM 49.8 °F - 31.8 °F 50% 30.30 in 10.0 mi NE 6.9 mph - N/A   Clear
5:35 PM 47.5 °F - 31.1 °F 53% 30.30 in 10.0 mi NE 5.8 mph - N/A   Clear
5:55 PM 45.7 °F 43.4 °F 30.9 °F 56% 30.31 in 10.0 mi ENE 4.6 mph - N/A   Clear
6:15 PM 45.1 °F 42.0 °F 31.1 °F 58% 30.31 in 10.0 mi NE 5.8 mph - N/A   Clear
6:35 PM 43.9 °F 39.9 °F 30.9 °F 60% 30.30 in 10.0 mi NE 6.9 mph - N/A   Clear
6:55 PM 41.7 °F 38.0 °F 30.0 °F 63% 30.30 in 10.0 mi NE 5.8 mph - N/A   Clear
7:15 PM 40.5 °F 37.3 °F 30.6 °F 68% 30.30 in 10.0 mi NE 4.6 mph - N/A   Clear
7:35 PM 38.8 °F - 29.8 °F 70% 30.30 in 10.0 mi Calm Calm - N/A   Clear
7:55 PM 37.4 °F - 30.0 °F 75% 30.30 in 10.0 mi Calm Calm - N/A   Clear
8:15 PM 35.2 °F - 29.3 °F 79% 30.29 in 10.0 mi Calm Calm - N/A   Clear
8:35 PM 36.3 °F - 29.7 °F 77% 30.29 in 10.0 mi Calm Calm - N/A   Clear
8:55 PM 32.5 °F - 28.2 °F 84% 30.28 in 10.0 mi Calm Calm - N/A   Clear
9:15 PM 33.8 °F - 28.4 °F 81% 30.28 in 10.0 mi Calm Calm - N/A   Clear
9:35 PM 34.7 °F - 28.9 °F 79% 30.28 in 10.0 mi Calm Calm - N/A   Clear
9:55 PM 33.6 °F - 28.6 °F 82% 30.28 in 10.0 mi Calm Calm - N/A   Clear
10:15 PM 32.0 °F - 27.9 °F 85% 30.28 in 10.0 mi Calm Calm - N/A   Clear
10:35 PM 32.2 °F - 28.4 °F 86% 30.28 in 10.0 mi Calm Calm - N/A   Clear
10:55 PM 32.2 °F - 27.9 °F 84% 30.28 in 10.0 mi Calm Calm - N/A   Clear
11:15 PM 31.1 °F - 27.3 °F 86% 30.28 in 10.0 mi Calm Calm - N/A   Clear
11:35 PM 30.0 °F - 27.0 °F 88% 30.27 in 10.0 mi Calm Calm - N/A   Clear
11:55 PM 29.8 °F - 27.0 °F 89% 30.26 in 10.0 mi Calm Calm - N/A   Clear